Great Falls International Airport
KGTF : rendu visible

Aérodrome :











RETROUVEZ-NOUS SUR...

 
LOGIN :

S'inscrire | Disclaimer

   EN    FR    IT 

 









Légende :    VFR   VFR Marginal   IFR   IFR Intensif   IFR Très Intensif
Visi : 
Plafond : 
>= 8 km
>= 3000ft
5 à 8 km
1000 à 3000 ft
1500m à 5 km
500 à 1000 ft
800 à 1500m
200 à 500 ft
< 800m
< 200 ft
Symboles :   Orages  Brouillard  Fortes neiges  Fortes précipitations  Vent > 20 kt






- Altitude de l'aérodrome : 3680 ft
- Code IATA : GTF


KGTF - Great Falls International

DERNIER METAR :
  • 102353Z 21008KT 10SM CLR 30/01 A2990 RMK AO2 SLP098 T03000011 10306 20250 56020 $

METARs EXPIRÉS :
  • 102253Z 24011G20KT 10SM CLR 31/02 A2992 RMK AO2 SLP103 T03060017 $
  • 102153Z 19008G17KT 10SM CLR 29/02 A2994 RMK AO2 SLP113 T02940022 $

TAF KGTF
Valide du 11 à 00h jusqu'au 12 à 00h UTC


102320Z 1100/1124 19010KT P6SM SKC
FM110600 22007KT P6SM SKC
FM111800 24013G21KT P6SM SKC
FIR KZLC / Amérique du Nord



MET'MAP, la Météo Aéronautique d'un coup d'oeil ! - Copyright ORBIFLY Décembre 2007 - Disclaimer

ORBIFLY MET'MAP TEAM :

Programmation & Développement : Alexandra Zaïnal
Sur une idée originale de : Baudouin d'Aumeries
Assistance à la programmation : Marc-Olivier Méhu
Soutien technique & logistique : Manuel Goepfert

Contact : metmap@orbifly.com




SOURCES & CREDITS :

   NOAA       Earth
Advisory